Terminal Aerodrome Forecast
Issued by NWS

Home | Current Version | Previous Version | Graphics & Text | Print | Product List | Glossary On
Versions: 1 2 3 4 5 6 7 8 9 10 11 12 13 14 15 16 17 18 19 20
000
FTUS43 KMPX 291413 AAA
TAFRNH
TAF AMD
KRNH 291413Z 2914/3012 28011KT P6SM VCSH BKN008 OVC020
     FM291700 27011G17KT P6SM BKN020 OVC035
     FM291900 27012G18KT P6SM VCSH SCT025 BKN045
     FM300000 27006KT P6SM FEW050
     FM300800 VRB03KT 3SM BR FEW005=

USA.gov is the U.S. government's official web portal to all federal, state and local government web resources and services.